Location: Newark
(22.3060°N, 114.2134°E)
Time: 20:33:34
(UTC+00:00)

Explorer 11/Cluster Stage 4 - Pass Details

Date: 30 July 2021
Orbit: 467 x 1256 km, 28.8° (Epoch: 27 September)

Event Time Altitude Azimuth Distance (km) Brightness Sun altitude
Rises 23:34:27 0° 228° (SW) 3,835 9.6 21.4°
Reaches altitude 10° 23:37:10 10° 222° (SW) 2,976 9.2 22.0°
Maximum altitude 23:44:22 47° 151° (SSE) 1,557 8.6 23.6°
Drops below altitude 10° 23:52:11 10° 80° (E) 3,227 11.7 25.4°
Sets 23:55:14 0° 75° (ENE) 4,182 11.6 26.1°
